Debrecen, Hungary

6:12 AM CEST on July 21, 2017 (GMT +0200)
Debrecen

Weather History for LHDC - December, 2013

Change the Weather History Date:

Sunday, December 1, 2013

  Actual Average Record
Temperature  
Mean Temperature 32 °F -  
Max Temperature 42 °F 37 °F - ()
Min Temperature 23 °F 27 °F - ()
Degree Days  
Heating Degree Days 32    
Moisture  
Dew Point 28 °F    
Average Humidity 83    
Maximum Humidity 93    
Minimum Humidity 64    
Precipitation  
Precipitation 0.00 in 0.06 in - ()
Sea Level Pressure  
Sea Level Pressure 30.30 in    
Wind  
Wind Speed 3 mph ()    
Max Wind Speed 7 mph    
Max Gust Speed -    
Visibility 2.8 miles    
Events Fog    
T = Trace of Precipitation, MM = Missing Value Source: Averaged Metar Reports

Daily Weather History Graph

Daily Weather History Graph

Search for Another Location

Airport or City:

Trip Planner

Search our weather history database for the weather conditions in past years. The results will help you decide how hot, cold, wet, or windy it might be!

Date:

Astronomy

Dec. 01, 2013 Rise Set
Actual Time 7:00 AM CET 3:44 PM CET
Civil Twilight 6:25 AM CET 4:19 PM CET
Nautical Twilight 5:46 AM CET 4:58 PM CET
Astronomical Twilight 5:09 AM CET 5:35 PM CET
Moon 4:51 AM CET (12/1) 2:45 PM CET (12/1)
Length of Visible Light 9h 54m
Length of Day
8h 44m
Waning Crescent, 3% of the Moon is Illuminated
Dec 1
Waning Crescent
Dec 3
New
Dec 9
First Quarter
Dec 17
Full
Dec 25
Last Quarter

Hourly Weather History & Observations

Time (CET) Temp. Windchill Dew Point Humidity Pressure Visibility Wind Dir Wind Speed Gust Speed Precip Events Conditions
1:00 AM 31 °F - 28 °F 84% 30.28 in - SE 6.7 mph - -  
5:15 AM 24.8 °F - 23.0 °F 93% 30.30 in 2.5 mi East 1.2 mph - N/A   Mist
5:45 AM 24.8 °F 20.5 °F 23.0 °F 93% 30.27 in 2.2 mi SE 3.5 mph - N/A   Mist
6:00 AM - - - N/A% - 1.9 mi Variable 3.5 mph - N/A Fog Light Freezing Fog
6:15 AM 24.8 °F - 23.0 °F 93% 30.30 in 1.9 mi ENE 2.3 mph - N/A   Partly Cloudy
6:45 AM 24.8 °F - 23.0 °F 93% 30.30 in 1.4 mi ENE 2.3 mph - N/A   Partly Cloudy
6:49 AM 24.8 °F - 23.0 °F 93% 30.33 in 1.4 mi East 2.3 mph - N/A   Partly Cloudy
7:00 AM 25 °F - 23 °F 91% 30.32 in 1 mi ENE 2.2 mph - -   Mist
7:15 AM 23.0 °F - 21.2 °F 93% 30.30 in 1.4 mi ESE 2.3 mph - N/A   Partly Cloudy
7:45 AM 23.0 °F - 21.2 °F 93% 30.30 in 1.4 mi East 2.3 mph - N/A   Partly Cloudy
8:15 AM 26.6 °F - 24.8 °F 93% 30.30 in 1.6 mi East 2.3 mph - N/A   Partly Cloudy
8:45 AM 30.2 °F - 26.6 °F 86% 30.30 in 1.9 mi SSE 2.3 mph - N/A   Partly Cloudy
8:46 AM 30.2 °F - 28.4 °F 93% 30.33 in - Calm Calm - N/A   Unknown
9:00 AM - - - N/A% - 1.9 mi Variable 3.5 mph - N/A   Mist
9:15 AM 32.0 °F - 28.4 °F 87% 30.33 in 3.7 mi SSW 2.3 mph - N/A   Partly Cloudy
9:21 AM 33.8 °F - 28.4 °F 81% 30.36 in 3.7 mi SW 1.2 mph - N/A   Partly Cloudy
9:45 AM 33.8 °F - 30.2 °F 87% 30.33 in 3.7 mi West 1.2 mph - N/A   Partly Cloudy
10:15 AM 35.6 °F - 30.2 °F 81% 30.33 in 3.7 mi West 2.3 mph - N/A   Partly Cloudy
10:45 AM 37.4 °F - 32.0 °F 81% 30.33 in 3.7 mi WSW 2.3 mph - N/A   Unknown
11:15 AM 37.4 °F - 32.0 °F 81% 30.30 in 3.7 mi WSW 2.3 mph - N/A   Unknown
11:45 AM 39.2 °F - 32.0 °F 75% 30.30 in 3.7 mi West 1.2 mph - N/A   Unknown
12:00 PM - - - N/A% - 0.6 mi Variable 3.5 mph - N/A   Unknown
12:15 PM 41.0 °F - 32.0 °F 70% 30.30 in 3.7 mi West 2.3 mph - N/A   Unknown
12:45 PM 41.0 °F - 33.8 °F 76% 30.30 in 4.3 mi SW 2.3 mph - N/A   Unknown
1:00 PM 41 °F - 33 °F 64% 30.31 in 4 mi SW 2.2 mph - -   Partly Cloudy
1:15 PM 41.0 °F - 32.0 °F 70% 30.27 in 4.3 mi SW 2.3 mph - N/A   Unknown
1:45 PM 42.8 °F - 32.0 °F 66% 30.27 in 4.3 mi SSW 2.3 mph - N/A   Unknown
2:15 PM 41.0 °F 38.0 °F 32.0 °F 70% 30.27 in - SSW 4.6 mph - N/A   Clear
2:45 PM 41.0 °F 37.1 °F 32.0 °F 70% 30.27 in - SW 5.8 mph - N/A   Clear
3:15 PM 39.2 °F 35.0 °F 32.0 °F 75% 30.27 in - WSW 5.8 mph - N/A   Clear
3:45 PM 37.4 °F 34.9 °F 32.0 °F 81% 30.27 in 3.7 mi WSW 3.5 mph - N/A   Partly Cloudy
4:15 PM 35.6 °F 32.8 °F 30.2 °F 81% 30.27 in 3.1 mi SW 3.5 mph - N/A   Partly Cloudy
4:16 PM 35.6 °F - 30.2 °F 81% 30.30 in 3.1 mi SSW 2.3 mph - N/A   Partly Cloudy
4:45 PM 32.0 °F 28.7 °F 28.4 °F 87% 30.27 in 3.1 mi SW 3.5 mph - N/A   Partly Cloudy
5:00 PM - - - N/A% - - North - - N/A   Unknown
7:00 PM 28 °F - 26 °F 91% 30.28 in - SSE 2.2 mph - -